Location: Lafig�re
(44.4503°N, 4.0357°E)
Time: 10:34:26
(UTC+00:00)

Tiros 1 - Pass Details

Date: 23 January 2021
Orbit: 630 x 664 km, 48.4° (Epoch: 07 March)

Event Time Altitude Azimuth Distance (km) Brightness Sun altitude
Rises 17:27:02 0° 219° (SW) 2,924 11.6 -8.4°
Reaches altitude 10° 17:29:28 10° 212° (SSW) 2,013 10.5 -8.8°
Maximum altitude 17:33:45 38° 144° (SE) 964 7.9 -9.6°
Enters shadow 17:37:24 14° 80° (E) 1,786 8.8 -10.2°
